THT7X KLAX-NTAA

Flight info

Callsign THT7X
Flight time N/A
Altitude 28000
Route SUMMR2 FICKY/N0507F300 DCT 30N122W 25N124W 20N127W 15N130W/N0506F320 10N133W 05N136W 0330N13636W 00N138W/N0499F340 05S141W 10S144W 15S147W DCT ASOKI ASOKI3V
Aircraft A343/H-SDE2E3FGHIJ4J5M1RWXY/LB1D1

Departure

Time 2026-05-03 22:08
Airport Los Angeles International Airport (KLAX)

Arrival

Time N/A
Airport Fa'a'ā International Airport (NTAA)
Time Latitude Longitude Altitude Speed Heading
2026-05-03 21:41 33.94116 -118.41398 97 ft 0 kts 292°
2026-05-03 21:57 33.94116 -118.41397 96 ft 1 kts 292°
2026-05-03 21:57 33.94108 -118.41375 98 ft 2 kts 291°
2026-05-03 21:57 33.94098 -118.41346 97 ft 4 kts 298°
2026-05-03 21:58 33.94084 -118.41319 97 ft 4 kts 308°
2026-05-03 21:58 33.94065 -118.41296 98 ft 4 kts 330°
2026-05-03 21:58 33.94044 -118.41288 97 ft 4 kts 353°
2026-05-03 21:58 33.94022 -118.41284 96 ft 1 kts 353°
2026-05-03 21:59 33.94021 -118.41284 97 ft 0 kts 353°
2026-05-03 22:01 33.94022 -118.41284 97 ft 0 kts 353°
2026-05-03 22:01 33.94037 -118.41286 99 ft 5 kts 353°
2026-05-03 22:02 33.94095 -118.41295 99 ft 12 kts 353°
2026-05-03 22:02 33.94201 -118.41311 99 ft 18 kts 353°
2026-05-03 22:02 33.94348 -118.41332 99 ft 24 kts 354°
2026-05-03 22:02 33.94512 -118.41357 100 ft 23 kts 352°
2026-05-03 22:03 33.94660 -118.41380 99 ft 18 kts 353°
2026-05-03 22:03 33.94751 -118.41389 98 ft 10 kts
2026-05-03 22:03 33.94788 -118.41341 101 ft 7 kts 79°
2026-05-03 22:03 33.94793 -118.41285 99 ft 7 kts 83°
2026-05-03 22:04 33.94799 -118.41224 100 ft 8 kts 83°
2026-05-03 22:04 33.94805 -118.41158 101 ft 8 kts 82°
2026-05-03 22:04 33.94815 -118.41072 100 ft 13 kts 82°
2026-05-03 22:04 33.94828 -118.40942 101 ft 19 kts 83°
2026-05-03 22:05 33.94846 -118.40758 98 ft 26 kts 83°
2026-05-03 22:05 33.94872 -118.40511 99 ft 33 kts 84°
2026-05-03 22:05 33.94902 -118.40222 101 ft 35 kts 83°
2026-05-03 22:05 33.94926 -118.39979 97 ft 18 kts 82°
2026-05-03 22:06 33.94994 -118.39916 101 ft 10 kts
2026-05-03 22:06 33.95038 -118.39941 99 ft 3 kts 297°
2026-05-03 22:06 33.95041 -118.39964 101 ft 2 kts 274°
2026-05-03 22:06 33.95039 -118.39983 99 ft 0 kts 262°
2026-05-03 22:07 33.95026 -118.40099 99 ft 37 kts 263°
2026-05-03 22:07 33.94976 -118.40596 103 ft 82 kts 263°
2026-05-03 22:08 33.94889 -118.41431 102 ft 119 kts 263°
2026-05-03 22:08 33.94774 -118.42551 104 ft 151 kts 263°
2026-05-03 22:08 33.94624 -118.43964 303 ft 180 kts 261°
2026-05-03 22:08 33.94420 -118.45502 781 ft 198 kts 261°
2026-05-03 22:09 33.94222 -118.47222 1045 ft 215 kts 263°
2026-05-03 22:09 33.94132 -118.49034 1411 ft 223 kts 268°
2026-05-03 22:09 33.94129 -118.50966 1620 ft 237 kts 269°
2026-05-03 22:10 33.93906 -118.55002 2342 ft 246 kts 264°
2026-05-03 22:10 33.93748 -118.57030 2921 ft 241 kts 263°
2026-05-03 22:10 33.93589 -118.59042 3350 ft 244 kts 263°
2026-05-03 22:10 33.93425 -118.61110 3673 ft 251 kts 263°
2026-05-03 22:11 33.93259 -118.63208 4122 ft 259 kts 263°
2026-05-03 22:11 33.93087 -118.65397 4726 ft 266 kts 263°
2026-05-03 22:11 33.92915 -118.67640 5352 ft 270 kts 263°
2026-05-03 22:11 33.92739 -118.69829 6235 ft 264 kts 262°
2026-05-03 22:12 33.92300 -118.71970 6906 ft 264 kts 245°
2026-05-03 22:12 33.91330 -118.73842 7512 ft 265 kts 228°
2026-05-03 22:12 33.90065 -118.75470 8149 ft 267 kts 225°
2026-05-03 22:12 33.88749 -118.77039 8845 ft 268 kts 224°
2026-05-03 22:13 33.87413 -118.78611 9504 ft 269 kts 224°
2026-05-03 22:13 33.86069 -118.80186 10114 ft 271 kts 224°
2026-05-03 22:13 33.84706 -118.81781 10423 ft 284 kts 224°